Location: Newark
(51.8900°N, 2.0780°W)
Time: 08:46:45
(UTC+00:00)

Envisat - Pass Details

Date: 24 November 2019
Orbit: 764 x 766 km, 98.1° (Epoch: 06 December)

Event Time Altitude Azimuth Distance (km) Brightness Sun altitude
Rises 17:31:43 0° 153° (SSE) 3,222 6.1 -12.6°
Reaches altitude 10° 17:34:01 10° 150° (SSE) 2,300 5.3 -12.9°
Maximum altitude 17:39:02 64° 71° (ENE) 851 3.0 -13.7°
Drops below altitude 10° 17:44:04 10° 351° (N) 2,315 5.4 -14.4°
Sets 17:46:24 0° 348° (NNW) 3,246 6.2 -14.8°
